2023-003A (55133 NORAD) Tracking and Keplerian Element Data

This shows tracking and keplerian element data for the satellite.

Feedback or suggestion? Click here.




ElementValue
Catalog55133
Name2023-003A
Epoch Orbit60
Epoch Day13.22087897
Epoch Year2023
RAAN103.1595
Inclination97.2717
Eccentricity0.0006387
Argument of Perigee248.8661
Mean Anonmoly195.3323
Mean Motion15.17186772
Decay Rate-3.953E-05
L11 55133U 23003A 23013.22087897 -.00003953 00000+0 -19594-3 0 9999
L22 55133 97.2717 103.1595 0006387 248.8661 195.3323 15.17186772 602



Live tracking and technical data element details for 2023-003A (NORAD 55133). 2023-003A can be tracked NOW for your location showing map with azimuth and elevation plus other details from your city location.







IsCatalogInMostPopularTable: catalog: 55133, numindb: 3
Update: records affected: 1



GetName: 55133 2023-003A

Hit Count: updated at: Tue, 07 Feb 2023 14:11:29 GMT